This is the latest recevied weather packets stored in our database for station/object PY2XH-13. If no packets are shown the sender has not sent any weather packets the latest 10 day(s).
| Time | Temp. | Humidity | Pressure | Rain* | Wind** | Luminosity | Snow |
|---|---|---|---|---|---|---|---|
| 1777945564 | 21.67° C | 70% | 1035.5 hPa | - | - | - | - |
| 1777943765 | 21.67° C | 71% | 1035.5 hPa | - | - | - | - |
| 1777941965 | 21.67° C | 71% | 1035.6 hPa | - | - | - | - |
| 1777940165 | 21.67° C | 72% | 1035.5 hPa | - | - | - | - |
| 1777938365 | 21.67° C | 71% | 1035.2 hPa | - | - | - | - |
| 1777936565 | 21.67° C | 72% | 1035.1 hPa | - | - | - | - |
| 1777934764 | 21.67° C | 73% | 1034.5 hPa | - | - | - | - |
| 1777932965 | 21.67° C | 72% | 1034.4 hPa | - | - | - | - |
| 1777931165 | 21.67° C | 71% | 1033.7 hPa | - | - | - | - |
| 1777929365 | 21.67° C | 71% | 1033.5 hPa | - | - | - | - |
| 1777927564 | 21.67° C | 70% | 1033.2 hPa | - | - | - | - |
| 1777925764 | 22.22° C | 71% | 1033.2 hPa | - | - | - | - |
| 1777923965 | 22.22° C | 69% | 1032.9 hPa | - | - | - | - |
| 1777922164 | 22.78° C | 61% | 1032.4 hPa | - | - | - | - |
| 1777920364 | 22.78° C | 59% | 1032.2 hPa | - | - | - | - |
| 1777918564 | 23.89° C | 56% | 1032.1 hPa | - | - | - | - |
| 1777916765 | 23.89° C | 57% | 1032.1 hPa | - | - | - | - |
| 1777914965 | 23.33° C | 59% | 1032.5 hPa | - | - | - | - |
| 1777913165 | 22.78° C | 60% | 1032.9 hPa | - | - | - | - |
| 1777911364 | 22.22° C | 62% | 1033.3 hPa | - | - | - | - |
| 1777909565 | 22.22° C | 62% | 1033.8 hPa | - | - | - | - |
| 1777907764 | 21.67° C | 64% | 1034.2 hPa | - | - | - | - |
| 1777905964 | 21.67° C | 68% | 1034.7 hPa | - | - | - | - |
| 1777904164 | 21.11° C | 63% | 1035.1 hPa | - | - | - | - |
| 1777902364 | 21.11° C | 63% | 1035.5 hPa | - | - | - | - |
* Rain since midnight (hover to see other rain measurements)
** Current wind speed in m/s (hover to see current wind gust speed)